Time,TemperatureF,DewpointF,PressureIn,WindDirection,WindDirectionDegrees,WindSpeedMPH,WindSpeedGustMPH,Humidity,HourlyPrecipIn,Conditions,Clouds,dailyrainin,SoftwareType,DateUTC
2013-07-09 00:33:00,67.0,65.0,29.91,North,0,0.0,-999.0,93,0.00,,,-99.99,,2013-07-09 07:33:00,
2013-07-09 00:43:00,67.0,65.0,29.91,North,0,0.0,-999.0,93,0.00,,,-99.99,,2013-07-09 07:43:00,
2013-07-09 01:33:00,67.0,65.0,29.90,North,0,0.0,-999.0,92,0.00,,,-99.99,,2013-07-09 08:33:00,
2013-07-09 01:43:00,67.0,65.0,29.90,North,0,0.0,-999.0,92,0.00,,,-99.99,,2013-07-09 08:43:00,
2013-07-09 02:34:00,67.0,63.0,29.89,North,0,0.0,-999.0,88,0.00,,,-99.99,,2013-07-09 09:34:00,
2013-07-09 02:42:00,67.0,63.0,29.89,North,0,0.0,-999.0,88,0.00,,,-99.99,,2013-07-09 09:42:00,
2013-07-09 03:33:00,67.0,64.0,29.89,North,0,0.0,-999.0,90,0.00,,,-99.99,,2013-07-09 10:33:00,
2013-07-09 03:42:00,67.0,64.0,29.89,North,0,0.0,-999.0,90,0.00,,,-99.99,,2013-07-09 10:42:00,
2013-07-09 04:33:00,67.0,65.0,29.89,North,0,0.0,-999.0,92,0.00,,,-99.99,,2013-07-09 11:33:00,
2013-07-09 04:42:00,67.0,65.0,29.89,North,0,0.0,-999.0,92,0.00,,,-99.99,,2013-07-09 11:42:00,
2013-07-09 05:33:00,66.0,64.0,29.89,North,0,0.0,-999.0,93,0.00,,,-99.99,,2013-07-09 12:33:00,
2013-07-09 05:43:00,66.0,64.0,29.89,North,0,0.0,-999.0,93,0.00,,,-99.99,,2013-07-09 12:43:00,
2013-07-09 06:43:00,65.0,63.0,29.91,North,0,0.0,-999.0,93,0.00,,,-99.99,,2013-07-09 13:43:00,
2013-07-09 07:34:00,67.0,66.0,29.93,North,0,0.0,-999.0,95,0.00,,,-99.99,,2013-07-09 14:34:00,
2013-07-09 07:43:00,67.0,66.0,29.93,North,0,0.0,-999.0,95,0.00,,,-99.99,,2013-07-09 14:43:00,
2013-07-09 08:33:00,67.0,65.0,29.94,West,280,3.0,-999.0,94,0.00,,,-99.99,,2013-07-09 15:33:00,
2013-07-09 08:43:00,67.0,65.0,29.94,West,280,3.0,-999.0,94,0.00,,,-99.99,,2013-07-09 15:43:00,
2013-07-09 09:33:00,68.0,66.0,29.96,WSW,240,4.0,-999.0,94,0.00,,,-99.99,,2013-07-09 16:33:00,
2013-07-09 09:43:00,68.0,66.0,29.96,WSW,240,4.0,-999.0,94,0.00,,,-99.99,,2013-07-09 16:43:00,
2013-07-09 09:45:00,69.0,67.0,29.98,SW,230,2.0,-999.0,93,0.00,,,-99.99,,2013-07-09 16:45:00,
2013-07-09 11:32:00,71.0,67.0,29.99,North,0,0.0,-999.0,88,0.00,,,-99.99,,2013-07-09 18:32:00,
2013-07-09 11:42:00,71.0,67.0,29.99,North,0,0.0,-999.0,88,0.00,,,-99.99,,2013-07-09 18:42:00,
2013-07-09 12:33:00,74.0,70.0,30.01,South,170,2.0,-999.0,86,0.00,,,-99.99,,2013-07-09 19:33:00,
2013-07-09 12:42:00,74.0,70.0,30.01,South,170,2.0,-999.0,86,0.00,,,-99.99,,2013-07-09 19:42:00,
2013-07-09 13:32:00,74.0,69.0,30.01,SSE,150,1.0,-999.0,85,0.00,,,-99.99,,2013-07-09 20:32:00,
2013-07-09 13:42:00,74.0,69.0,30.01,SSE,150,1.0,-999.0,85,0.00,,,-99.99,,2013-07-09 20:42:00,
2013-07-09 14:32:00,73.0,68.0,30.01,SSE,160,2.0,-999.0,85,0.00,,,-99.99,,2013-07-09 21:32:00,
2013-07-09 14:42:00,73.0,68.0,30.01,SSE,160,2.0,-999.0,85,0.00,,,-99.99,,2013-07-09 21:42:00,
2013-07-09 15:33:00,73.0,68.0,29.99,North,0,0.0,-999.0,84,0.00,,,-99.99,,2013-07-09 22:33:00,
2013-07-09 15:42:00,73.0,68.0,29.99,North,0,0.0,-999.0,84,0.00,,,-99.99,,2013-07-09 22:42:00,
2013-07-09 16:33:00,73.0,67.0,29.98,South,190,4.0,-999.0,82,0.00,,,-99.99,,2013-07-09 23:33:00,
2013-07-09 16:43:00,73.0,67.0,29.98,South,190,4.0,-999.0,82,0.00,,,-99.99,,2013-07-09 23:43:00,
2013-07-09 17:33:00,73.0,67.0,29.94,SSW,200,1.0,-999.0,82,0.00,,,-99.99,,2013-07-10 00:33:00,
2013-07-09 17:42:00,73.0,67.0,29.94,SSW,200,1.0,-999.0,82,0.00,,,-99.99,,2013-07-10 00:42:00,
2013-07-09 18:33:00,72.0,67.0,29.92,ESE,110,2.0,-999.0,83,0.00,,,-99.99,,2013-07-10 01:33:00,
2013-07-09 18:43:00,72.0,67.0,29.92,ESE,110,2.0,-999.0,83,0.00,,,-99.99,,2013-07-10 01:43:00,
2013-07-09 19:34:00,70.0,66.0,29.92,SSW,200,3.0,-999.0,87,0.00,,,-99.99,,2013-07-10 02:34:00,
2013-07-09 19:43:00,70.0,66.0,29.92,SSW,200,3.0,-999.0,87,0.00,,,-99.99,,2013-07-10 02:43:00,
2013-07-09 20:32:00,69.0,66.0,29.91,SSW,200,2.0,-999.0,89,0.00,,,-99.99,,2013-07-10 03:32:00,
2013-07-09 20:43:00,69.0,66.0,29.91,SSW,200,2.0,-999.0,89,0.00,,,-99.99,,2013-07-10 03:43:00,
2013-07-09 21:32:00,69.0,66.0,29.92,North,0,0.0,-999.0,91,0.00,,,-99.99,,2013-07-10 04:32:00,
2013-07-09 21:43:00,69.0,66.0,29.92,North,0,0.0,-999.0,91,0.00,,,-99.99,,2013-07-10 04:43:00,
2013-07-09 22:32:00,69.0,67.0,29.94,North,0,0.0,-999.0,92,0.00,,,-99.99,,2013-07-10 05:32:00,
2013-07-09 22:42:00,69.0,67.0,29.94,North,0,0.0,-999.0,92,0.00,,,-99.99,,2013-07-10 05:42:00,
2013-07-09 23:32:00,69.0,67.0,29.95,North,0,0.0,-999.0,93,0.00,,,-99.99,,2013-07-10 06:32:00,
2013-07-09 23:42:00,69.0,67.0,29.95,North,0,0.0,-999.0,93,0.00,,,-99.99,,2013-07-10 06:42:00,